Location: Johnson City
(36.3130°N, 82.3540°W)
Time: 11:49:25
(UTC-05:00)

X-37B - Pass Details

Date: 06 December 2021
Orbit: 334 x 337 km, 45.0° (Epoch: 11 January)

Event Time Altitude Azimuth Distance (km) Brightness Sun altitude
Rises 19:32:15 0° 269° (W) 2,096 5.6 -27.1°
Reaches altitude 10° 19:34:28 10° 284° (WNW) 1,262 4.0 -27.6°
Enters shadow 19:34:34 11° 285° (WNW) 1,232 3.9 -27.6°
